Weather History for KSLC - June, 2013

Change the Weather History Date:

Wednesday, June 19, 2013

  Actual Average Record
Temperature  
Mean Temperature 78 °F 71 °F  
Max Temperature 83 °F 84 °F 101 °F (1940)
Min Temperature 73 °F 57 °F 40 °F (1973)
Degree Days  
Heating Degree Days 0 1  
Month to date heating degree days 2 39  
Since 1 June heating degree days 2 39  
Since 1 July heating degree days 5458 5600  
Cooling Degree Days 13 7  
Month to date cooling degree days 188 92  
Year to date cooling degree days 258 142  
Since 1 June cooling degree days 188 92  
Growing Degree Days 20 (Base 50)    
Moisture  
Dew Point 28 °F    
Average Humidity 24    
Maximum Humidity 38    
Minimum Humidity 9    
Precipitation  
Precipitation 0.00 in 0.03 in 1.11 in (2011)
Month to date precipitation 0.00 0.76  
Year to date precipitation 6.12 8.99  
Snow  
Snow 0.00 in 0.00 in - ()
Month to date snowfall 0.0 0.0  
Since 1 July snowfall 69.9 56.2  
Snow Depth 0.00 in    
Sea Level Pressure  
Sea Level Pressure 29.61 in    
Wind  
Wind Speed 16 mph (NW)    
Max Wind Speed 28 mph    
Max Gust Speed 35 mph    
Visibility 10 miles    
Events      
T = Trace of Precipitation, MM = Missing Value Source: NWS Daily Summary

Daily Weather History Graph

Daily Weather History Graph

Search for Another Location

Airport or City:

Trip Planner

Search our weather history database for the weather conditions in past years. The results will help you decide how hot, cold, wet, or windy it might be!

Date:

Astronomy

Jun. 19, 2013 Rise Set
Actual Time 5:56 AM MDT 9:02 PM MDT
Civil Twilight 5:22 AM MDT 9:35 PM MDT
Nautical Twilight 4:40 AM MDT 10:18 PM MDT
Astronomical Twilight 3:49 AM MDT 11:09 PM MDT
Moon 4:58 PM MDT (6/19) 2:44 AM MDT (6/19)
Length of Visible Light 16h 13m
Length of Day
15h 06m
Waxing Gibbous, 81% of the Moon is Illuminated
Jun 19
Waxing Gibbous
Jun 23
Full
Jun 29
Last Quarter
Jul 8
New
Jul 15
First Quarter

Hourly Weather History & Observations

Time (MDT) Temp. Dew Point Humidity Pressure Visibility Wind Dir Wind Speed Gust Speed Precip Events Conditions
12:53 AM 82.0 °F 18.0 °F 9% 29.44 in 10.0 mi SSE 21.9 mph - N/A   Scattered Clouds
1:53 AM 81.0 °F 19.9 °F 10% 29.44 in 10.0 mi SE 20.7 mph 29.9 mph N/A   Scattered Clouds
2:53 AM 79.0 °F 24.1 °F 13% 29.44 in 10.0 mi SSE 17.3 mph - N/A   Partly Cloudy
3:53 AM 77.0 °F 21.9 °F 13% 29.44 in 10.0 mi SSE 17.3 mph 23.0 mph N/A   Partly Cloudy
4:53 AM 75.9 °F 23.0 °F 14% 29.44 in 10.0 mi SSE 11.5 mph - N/A   Partly Cloudy
5:53 AM 77.0 °F 19.9 °F 12% 29.44 in 10.0 mi South 13.8 mph 23.0 mph N/A   Partly Cloudy
6:53 AM 75.9 °F 26.1 °F 16% 29.46 in 10.0 mi WSW 9.2 mph - N/A   Partly Cloudy
7:53 AM 73.0 °F 45.0 °F 37% 29.49 in 10.0 mi West 19.6 mph 31.1 mph N/A   Partly Cloudy
8:53 AM 75.0 °F 39.9 °F 28% 29.50 in 10.0 mi NNW 9.2 mph - N/A   Partly Cloudy
9:53 AM 75.9 °F 39.0 °F 26% 29.54 in 10.0 mi WNW 16.1 mph 25.3 mph N/A   Scattered Clouds
10:53 AM 77.0 °F 39.0 °F 25% 29.56 in 10.0 mi NW 16.1 mph 25.3 mph N/A   Scattered Clouds
11:53 AM 78.1 °F 32.0 °F 19% 29.60 in 10.0 mi NW 15.0 mph 26.5 mph N/A   Scattered Clouds
12:53 PM 78.1 °F 28.9 °F 17% 29.61 in 10.0 mi NNW 10.4 mph 19.6 mph N/A   Scattered Clouds
1:53 PM 78.1 °F 30.0 °F 17% 29.62 in 10.0 mi Variable 6.9 mph 17.3 mph N/A   Scattered Clouds
2:53 PM 80.1 °F 30.0 °F 16% 29.63 in 10.0 mi NNW 6.9 mph 17.3 mph N/A   Scattered Clouds
3:53 PM 82.9 °F 19.9 °F 10% 29.64 in 10.0 mi WNW 16.1 mph 25.3 mph N/A   Scattered Clouds
4:53 PM 78.1 °F 15.1 °F 9% 29.68 in 10.0 mi NW 23.0 mph 34.5 mph N/A   Mostly Cloudy
5:53 PM 75.0 °F 24.1 °F 15% 29.72 in 10.0 mi North 23.0 mph 28.8 mph N/A   Scattered Clouds
6:53 PM 72.0 °F 21.9 °F 15% 29.76 in 10.0 mi North 19.6 mph 29.9 mph N/A   Mostly Cloudy
7:53 PM 72.0 °F 21.0 °F 15% 29.78 in 10.0 mi North 17.3 mph 26.5 mph N/A   Scattered Clouds
8:53 PM 69.1 °F 25.0 °F 19% 29.81 in 10.0 mi NNW 15.0 mph - N/A   Scattered Clouds
9:53 PM 64.9 °F 30.9 °F 28% 29.83 in 10.0 mi North 13.8 mph 21.9 mph N/A   Scattered Clouds
10:53 PM 61.0 °F 32.0 °F 34% 29.86 in 10.0 mi North 8.1 mph - N/A   Scattered Clouds
11:53 PM 59.0 °F 34.0 °F 39% 29.86 in 10.0 mi North 5.8 mph - N/A   Scattered Clouds